Вернуться в каталог

STARLINK-11677

АктивенСвязьVLEO
NORAD 63751·PAYLOAD·🇺🇸 United States

Запущен Apr 29, 2025 с Cape Canaveral Space Force Station

Loading…

Ближайшие Пролёты (ближайшие 24 часа)

TLE

СвежийSource: CelesTrak SupGP

Эпоха: Sep 14, 2026, 21:33 UTC

1 63751C 25089A   26257.89840278  .00054266  00000+0  42163-3 0  2572
2 63751  43.0006 232.0687 0001486 264.2223 311.6358 15.70803786    18

Отслеживайте STARLINK-11677 в реальном времени с AllMySat

Download on the App Store